Hourly Data Report for October 06, 2015

All times are specified in Local Standard Time (LST). Add 1 hour to adjust for Daylight Saving Time where and when it is observed.

EUREKA CLIMATE
NUNAVUT

79°59'21.000" N
85°56'02.000" W
10.00 m
2401199
71613
NEK

Download Data

Hourly Data (October 2015)
Hourly Data Report for October 6, 2015
Temp Definition
°C
Dew Point Temp Definition
°C
Rel Hum Definition
%
Wind Dir Definition
10's deg

Wind Spd Definition
km/h
Visibility Definition
km
Stn Press Definition
kPa
Hmdx Definition


Wind Chill Definition


Weather Definition


TIME
00:00 -18.9 -20.3 88 5 4   100.35   -22 LegendNANA
01:00 -18.5 -19.8 90 3 6   100.36   -23 LegendNANA
02:00 -18.3 -19.7 88 10 4   100.39   -22 LegendNANA
03:00 -19.8 -21.4 88 4 5   100.41   -24 LegendNANA
04:00 -18.7 -20.0 89 5 4   100.42   -22 LegendNANA
05:00 -18.3 -19.8 88 10 3   100.44   -21 LegendNANA
06:00 -17.8 -19.1 89 9 4   100.46   -21 LegendNANA
07:00 -19.8 -21.5 86 7 3   100.49   -22 LegendNANA
08:00 -19.3 -20.8 87 2 6   100.50   -24 LegendNANA
09:00 -17.2 -18.5 90 14 2   100.53   -19 LegendNANA
10:00 -16.8 -18.1 90 10 2   100.56   -18 LegendNANA
11:00 -16.7 -18.0 90 10 2   100.55   -18 LegendNANA
12:00 -15.3 -16.3 92 3 3   100.56   -17 LegendNANA
13:00 -15.0 -16.3 90 11 2   100.60   -16 LegendNANA
14:00 -16.0 -17.3 90 9 2   100.61   -17 LegendNANA
15:00 -16.4 -17.7 90 9 1   100.64   -17 LegendNANA
16:00 -16.1 -17.3 91 10 2   100.64   -18 LegendNANA
17:00 -14.2 -15.2 92 8 2   100.64   -16 LegendNANA
18:00 -13.7 -14.7 92 27 1   100.64   -14 LegendNANA
19:00 -13.6 -14.6 92 31 2   100.63   -15 LegendNANA
20:00 -11.3 -11.9 95 29 3   100.63   -13 LegendNANA
21:00 -10.2 -10.7 96 31 4   100.60   -13 LegendNANA
22:00 -11.8 -12.7 93 1 6   100.60   -16 LegendNANA
23:00 -12.7 -13.6 93 5 2   100.57   -14 LegendNANA

Notes on Data Quality.

Legend

  • E = Estimated
  • M = Missing
  • NA = Not Available
  • ‡ = Partner data that is not subject to review by the National Climate Archives
Date modified: